Location: Downe
(51.3167°N, 0.0500°E)
Time: 20:50:55
(UTC+00:00)

Cosmos 1484 Rocket - Pass Details

Date: 17 November 2019
Orbit: 507 x 559 km, 97.4° (Epoch: 13 December)

Event Time Altitude Azimuth Distance (km) Brightness Sun altitude
Rises 05:34:14 0° 10° (N) 2,748 6.4 -16.3°
Reaches altitude 10° 05:36:23 10° 6° (N) 1,853 5.5 -15.9°
Maximum altitude 05:40:20 58° 288° (WNW) 658 2.8 -15.3°
Drops below altitude 10° 05:44:16 10° 209° (SSW) 1,846 5.3 -14.7°
Sets 05:46:24 0° 206° (SSW) 2,736 6.2 -14.4°
